Flag for U.S.A. Weather past 2 weeks in Bradenton, Florida, U.S.A.

Now
78 °F

Passing clouds.


Feels Like: 81 °F
Forecast: 74 / 85 °F
Wind: 6 mph from Southwest

Location: Sarasota-Bradenton International Airport

Current Time: Apr 18, 2015 at 9:31:45 PM

Latest Report: Apr 18, 2015 at 8:53 PM


Visibility: 10 mi

Pressure: 29.94 "Hg

Humidity: 84%

Dew point: 73 °F

Location of BradentonLocation

Historic Weather in Bradenton — Graph

°F

Bradenton temperature yesterday

Maximum temperature yesterday: 83 °F (at 3:53 PM)
Minimum temperature yesterday: 69 °F (at 5:53 AM)
Average temperature yesterday: 76 °F

Past Weeks' High & Low Weather Summary

 TemperatureHumidityPressure
High86 °F (Apr 13, 12:53 PM)100% (Apr 4, 5:53 AM)30.16 "Hg (Apr 4, 5:53 AM)
Low61 °F (Apr 4, 5:53 AM)46% (Apr 5, 1:53 PM)29.91 "Hg (Apr 18, 5:53 PM)
Average75 °F80%30.07 "Hg
* Reported Apr 3 7:53 PM — Apr 18 7:53 PM, Bradenton, Weather by CustomWeather, © 2015

Note: Actual official high and low records may vary slightly from our data, if they occured in-between our weather recording intervals... More about our weather records

Advertising

Bradenton weather history for previous 24 hours

 ConditionsComfort  
Time TempWeatherWind HumidityBarometerVisibility
7:53 PM
Sat, Apr 18
79 °FSunny.7 mph82%29.93 "Hg10 mi
6:53 PM80 °FPassing clouds.9 mph79%29.92 "Hg10 mi
5:53 PM80 °FPassing clouds.10 mph79%29.91 "Hg10 mi
4:53 PM84 °FPassing clouds.10 mph67%29.92 "Hg10 mi
3:53 PM83 °FPassing clouds.10 mph72%29.93 "Hg10 mi
2:53 PM82 °FSunny.12 mph72%29.96 "Hg10 mi
1:53 PM83 °FSunny.14 mph72%29.98 "Hg10 mi
12:53 PM83 °FSunny.13 mph70%29.99 "Hg10 mi
11:53 AM84 °FSunny.13 mph67%30.01 "Hg10 mi
10:53 AM82 °FSunny.13 mph74%29.99 "Hg10 mi
9:53 AM80 °FPassing clouds.12 mph79%29.97 "Hg10 mi
9:00 AM74 °FFog.7 mph97%29.97 "Hg3 mi
7:53 AM71 °FFog.5 mph100%29.96 "Hg2 mi
7:02 AM70 °FPassing clouds.5 mph100%29.96 "Hg4 mi
6:53 AM70 °FClear.No wind100%29.96 "Hg6 mi
5:53 AM70 °FClear.3 mph100%29.95 "Hg8 mi
4:53 AM71 °FClear.3 mph100%29.94 "Hg8 mi
3:53 AM72 °FPassing clouds.No wind97%29.95 "Hg9 mi
2:53 AM74 °FPassing clouds.No wind94%29.96 "Hg10 mi
2:03 AM76 °FMostly cloudy.No wind91%29.98 "Hg10 mi
1:53 AM76 °FOvercast.No wind91%29.98 "Hg10 mi
12:53 AM76 °FPassing clouds.No wind91%29.99 "Hg10 mi
11:53 PM
Fri, Apr 17
75 °FPassing clouds.3 mph90%29.99 "Hg10 mi
10:53 PM78 °FPassing clouds.5 mph84%29.99 "Hg10 mi
9:53 PM78 °FPartly cloudy.6 mph82%29.98 "Hg10 mi
Weather by CustomWeather, © 2015

See weather overviewHow to use our weather pages